Location: Grasslands National Park East Block
(49.0708°N, 106.5295°W)
Time: 15:14:14
(UTC-06:00)

SR - Pass Details

Date: 23 October 2019
Orbit: 574 x 882 km, 66.7° (Epoch: 18 November)

Event Time Altitude Azimuth Distance (km) Brightness Sun altitude
Rises 06:52:18 0° 323° (NW) 3,440 ? -8.3°
Reaches altitude 10° 06:54:46 10° 324° (NW) 2,523 ? -7.9°
Maximum altitude 07:00:41 87° 237° (WSW) 889 ? -6.9°
Drops below altitude 10° 07:06:36 10° 148° (SSE) 2,519 ? -6.0°
Sets 07:09:04 0° 148° (SSE) 3,435 ? -5.6°
